Location: Gombori
(14.9797°N, 2.9419°W)
Time: 10:41:35
(UTC+00:00)

Meteor 2-19 Rocket - Pass Details

Date: 29 July 2021
Orbit: 937 x 957 km, 82.5° (Epoch: 22 September)

Event Time Altitude Azimuth Distance (km) Brightness Sun altitude
Exits shadow 20:47:30 69° 55° (NE) 999 4.3 -28.2°
Drops below altitude 10° 20:53:01 10° 9° (N) 2,644 7.0 -29.4°
Sets 20:55:30 0° 8° (N) 3,588 7.8 -29.9°
